星链-5483 (STARLINK-5483 )

导读 | 豆包AI

STARLINK-5483是美国SpaceX公司星链(Starlink)星座的互联网通信卫星,于2023年2月17日由猎鹰9号火箭发射升空。作为低轨宽带星座的一员,它采用平板设计,配备氪工质霍尔推进器,运行在近地轨道,旨在为全球提供高速宽带互联网服务。卫星具备自主避撞能力,寿命末期会主动离轨再入大气层烧毁,减少太空垃圾影响,是星链全球组网的重要组成部分。

基本信息
目录编号:
55643
目录名称:
STARLINK-5483
国际标识:
2023-021R
轨道中心:
EARTH
卫星名称:
星链-5483
卫星全名:
星链-5483 (STARLINK-5483 )
卫星状态:
在轨 (已飞行1168 天)
发射日期:
2023-02-17 UTC
国别 :
美国 (US)
星等 :
--
轨道信息
数据来源 国际轨道数据
星历时间: 2026-04-30T12:58:55+0800
8小时前
查看轨道信息
半长轴: 6950.183km
偏心率: 0.0003082
轨道倾角: 70.001°
近地点辐角 269.626°
升交点赤经 54.744°
平近点角 90.455°
近地点: 569.903km
远地点: 574.189km
周期: 96.107分钟
每日圈数: 14.983335
详细信息
固有亮度:
5
最大亮度:
2.5
卫星平台:
Starlink v1.5
覆盖范围:
全球
运营商:
太空探索技术公司
运营商所在国:
美国
制造商(研发单位):
太空探索技术公司
制造商所在国:
美国
使用方式:
暂无
卫星简介
星链(Starlink)计划是由太空探索技术公司(SpaceX)提出的一个巨型低轨卫星互联网星座项目,计划在2019年至2024年间在太空搭建由约1.2万颗卫星组成的“星链”网络,其中1584颗将部署在地球上空550千米处的近地轨道,并从2020年开始工作。该卫星仍在工作。
2D轨道图
3D轨道图
轨道高度分析图
轨道倾角分析图
轨道综合分析图
查看轨道综合分析图